OPS 7034 (TRANSIT 18) (3133 NORAD) Tracking and Keplerian Element Data

This shows tracking and keplerian element data for the satellite.

Feedback or suggestion? Click here.




ElementValue
Catalog3133
NameOPS 7034 (TRANSIT 18)
Epoch Orbit57019
Epoch Day354.20468731
Epoch Year2025
RAAN273.6601
Inclination90.0284
Eccentricity0.0074572
Argument of Perigee147.6112
Mean Anonmoly13.523
Mean Motion13.5156731
Decay Rate1.09E-06
L11 03133U 68012A 25354.20468731 .00000109 00000+0 14919-3 0 9993
L22 03133 90.0284 273.6601 0074572 147.6112 13.5230 13.51567310570195



Live tracking and technical data element details for OPS 7034 (TRANSIT 18) (NORAD 3133). OPS 7034 (TRANSIT 18) can be tracked NOW for your location showing map with azimuth and elevation plus other details from your city location.







IsCatalogInMostPopularTable: catalog: 3133, numindb: 471
Update: records affected: 1



GetName: 3133 OPS 7034 (TRANSIT 18)

Hit Count: updated at: Thu, 21 May 2026 10:27:09 GMT